Tracking 33744 objects as of 12-Apr-2026
HD Live streaming from Space Station
objects crossing your sky now

STARLINK-5365

Track STARLINK-5365 now!
10-day predictions
STARLINK-5365 is classified as:


NORAD ID: 55498
Int'l Code: 2023-015BB
Perigee: 491.8 km
Apogee: 493.5 km
Inclination: 43.0 °
Period: 94.3 minutes
Semi major axis: 6863 km
RCS: Unknown
Launch date: February 2, 2023
Source: United States (US)
Launch site: AIR FORCE EASTERN TEST RANGE (AFETR)
Your satellite tracking list
Your tracking list is empty




NASA's NSSDC Master Catalog

Two Line Element Set (TLE):
1 55498U 23015BB  26101.84284414  .00001723  00000-0  73850-4 0  9997
2 55498  43.0013 152.6531 0001209 275.4209  84.6505 15.26758906175660
Source of the keplerian elements: AFSPC